Погода в Больших Ключах

Россия / Республика Татарстан     55°58′58″N   48°48′13″E
темп.,
°C
ветер,
м/с
пор.,
м/с
влажн.,
%
обл.,
%
осадки,
мм/ч
давл.,
гПа
погр.,
м
22 сентября, ср
ср2200:00+7в61355100 0.0 1019395
03:00+7в61356100 0.0 1019460
06:00+7в71556100 0.0 1017464
09:00+11вюв8134686 0.0 1017667
12:00+9вюв61283100 1.1 1018537
15:00+9вюв61292100 2.5 1018653
18:00+9юв61193100 0.5 1019531
21:00+9юв51193100 0.7 1020608
23 сентября, чт
чт2300:00+9вюв51194100 0.2 1020501
03:00+9вюв41094100 0.2 1020410
06:00+9вюв51094100 0.1 1021402
09:00+10вюв51286100 1.1 1021460
12:00+13юв7116799 0.0 1020712
15:00+10юв61282100 0.0 1020552
18:00+9юв61291100 0.1 1020525
21:00+10юв61380100 0.1 1020619
24 сентября, пт
пт2400:00+8юв61294100 2.3 1019640
03:00+9юв51194100 3.7 1017377
06:00+8юв61492100 1.2 1016730
09:00+9юв61382100 1.3 1015631
12:00+11ююв61473100 0.0 1015711
15:00+10юв71481100 2.0 1015643
18:00+9ююв81482100 0.9 1015929
21:00+9юв71489100 2.3 1015671
25 сентября, сб
сб2500:00+8юв51293100 1.2 1014622
03:00+7вюв61393100 4.2 1008711
06:00+8вюв51189100 0.8 1012430
09:00+7в4891100 3.3 1011402
12:00+9в4677100 1.8 1010635
15:00+8в3880100 1.9 1010502
18:00+8юв2384100 0.0 1010100
21:00+7вюв1286100 0.0 101041
26 сентября, вс
вс2600:00+8св1186100 0.0 101011
03:00+7св1186100 0.0 101011
06:00+7с1187100 0.0 101011
09:00+8ссз1182100 0.0 1010156
12:00+10с1176100 0.0 1011472
15:00+11св2368100 0.0 1012709
18:00+10с2275100 0.0 101230
21:00+9св3472100 0.0 101270